Jefferson, NC

1:43 PM EST on November 23, 2017 (GMT -0500)
Ashe County

Weather History for KGEV - April, 2013

Change the Weather History Date:

Monday, April 1, 2013

  Actual Average Record
Temperature  
Mean Temperature 44 °F -  
Max Temperature 51 °F 61 °F 84 °F (1974)
Min Temperature 37 °F 34 °F 20 °F (1987)
Degree Days  
Heating Degree Days 20    
Moisture  
Dew Point 33 °F    
Average Humidity 59    
Maximum Humidity 79    
Minimum Humidity 43    
Precipitation  
Precipitation 0.00 in - - ()
Sea Level Pressure  
Sea Level Pressure 29.90 in    
Wind  
Wind Speed 13 mph (WNW)    
Max Wind Speed 28 mph    
Max Gust Speed 44 mph    
Visibility 10 miles    
Events      
Averages and records for this station are not official NWS values.
T = Trace of Precipitation, MM = Missing Value Source: NWS Daily Summary

Daily Weather History Graph

Daily Weather History Graph

Search for Another Location

Airport or City:

Trip Planner

Search our weather history database for the weather conditions in past years. The results will help you decide how hot, cold, wet, or windy it might be!

Date:

Astronomy

Apr. 01, 2013 Rise Set
Actual Time 7:11 AM EDT 7:48 PM EDT
Civil Twilight 6:45 AM EDT 8:14 PM EDT
Nautical Twilight 6:14 AM EDT 8:44 PM EDT
Astronomical Twilight 5:43 AM EDT 9:16 PM EDT
Moon 12:47 AM EDT (4/1) 11:04 AM EDT (4/1)
Length of Visible Light 13h 28m
Length of Day
12h 36m
Waning Gibbous, 67% of the Moon is Illuminated
Apr 1
Waning Gibbous
Apr 3
Last Quarter
Apr 10
New
Apr 18
First Quarter
Apr 25
Full

Hourly Weather History & Observations

Time (EDT) Temp. Windchill Dew Point Humidity Pressure Visibility Wind Dir Wind Speed Gust Speed Precip Events Conditions
12:15 AM 48.0 °F - 41.7 °F 79% 29.87 in 10.0 mi West 11.5 mph - N/A   Overcast
12:35 AM 48.0 °F - 40.6 °F 76% 29.87 in 10.0 mi West 12.7 mph 16.1 mph N/A   Overcast
12:55 AM 48.0 °F - 40.1 °F 74% 29.87 in 10.0 mi WNW 15.0 mph - N/A   Overcast
1:15 AM 47.5 °F - 39.6 °F 74% 29.87 in 10.0 mi WNW 12.7 mph 20.7 mph N/A   Overcast
1:35 AM 46.9 °F - 39.2 °F 74% 29.86 in 10.0 mi WNW 13.8 mph 19.6 mph N/A   Scattered Clouds
1:55 AM 46.8 °F - 39.2 °F 75% 29.87 in 10.0 mi WNW 9.2 mph 19.6 mph N/A   Scattered Clouds
2:15 AM 46.6 °F - 38.8 °F 74% 29.86 in 10.0 mi WNW 13.8 mph 21.9 mph N/A   Clear
2:35 AM 46.4 °F 40.4 °F 37.9 °F 72% 29.86 in 10.0 mi WNW 13.8 mph 19.6 mph N/A   Clear
2:55 AM 46.4 °F 39.8 °F 36.7 °F 69% 29.86 in 10.0 mi WNW 16.1 mph 25.3 mph N/A   Clear
3:15 AM 46.4 °F 39.2 °F 36.0 °F 67% 29.86 in 10.0 mi West 18.4 mph 24.2 mph N/A   Clear
3:35 AM 46.0 °F 38.8 °F 36.5 °F 69% 29.84 in 10.0 mi WNW 18.4 mph 26.5 mph N/A   Clear
3:55 AM 45.7 °F 38.8 °F 37.4 °F 73% 29.84 in 10.0 mi WNW 16.1 mph 26.5 mph N/A   Scattered Clouds
4:15 AM 45.3 °F 40.6 °F 35.2 °F 68% 29.85 in 10.0 mi WNW 9.2 mph 20.7 mph N/A   Scattered Clouds
4:35 AM 44.6 °F 38.1 °F 34.9 °F 69% 29.84 in 10.0 mi NW 13.8 mph 21.9 mph N/A   Clear
4:55 AM 44.1 °F 38.1 °F 35.2 °F 71% 29.85 in 10.0 mi WNW 11.5 mph 19.6 mph N/A   Clear
5:15 AM 44.4 °F 37.5 °F 33.4 °F 65% 29.85 in 10.0 mi WNW 15.0 mph 25.3 mph N/A   Clear
5:35 AM 44.1 °F 37.7 °F 32.7 °F 64% 29.85 in 10.0 mi WNW 12.7 mph 19.6 mph N/A   Clear
5:55 AM 43.7 °F 38.1 °F 32.4 °F 64% 29.86 in 10.0 mi WNW 10.4 mph - N/A   Clear
6:15 AM 44.2 °F 38.0 °F 31.8 °F 62% 29.86 in 10.0 mi WNW 12.7 mph 27.6 mph N/A   Clear
6:35 AM 43.7 °F 36.6 °F 32.0 °F 63% 29.86 in 10.0 mi WNW 15.0 mph - N/A   Clear
6:55 AM 43.9 °F 38.3 °F 32.5 °F 64% 29.88 in 10.0 mi WNW 10.4 mph 17.3 mph N/A   Clear
7:15 AM 43.2 °F 37.0 °F 33.1 °F 68% 29.88 in 10.0 mi WNW 11.5 mph - N/A   Clear
7:35 AM 43.2 °F 37.9 °F 33.6 °F 69% 29.89 in 10.0 mi WNW 9.2 mph - N/A   Clear
7:55 AM 43.9 °F 39.9 °F 33.4 °F 67% 29.89 in 10.0 mi WNW 6.9 mph - N/A   Clear
8:15 AM 43.7 °F 40.3 °F 33.8 °F 68% 29.89 in 10.0 mi West 5.8 mph - N/A   Clear
8:35 AM 44.6 °F 43.1 °F 33.8 °F 66% 29.90 in 10.0 mi WNW 3.5 mph - N/A   Clear
8:55 AM 45.7 °F 42.7 °F 33.6 °F 63% 29.90 in 10.0 mi West 5.8 mph - N/A   Clear
9:15 AM 46.4 °F 42.9 °F 33.8 °F 62% 29.90 in 10.0 mi West 6.9 mph - N/A   Clear
9:35 AM 47.3 °F - 33.3 °F 58% 29.91 in 10.0 mi West 8.1 mph - N/A   Clear
9:55 AM 48.4 °F - 32.9 °F 55% 29.91 in 10.0 mi West 10.4 mph 16.1 mph N/A   Clear
10:15 AM 48.2 °F - 33.4 °F 57% 29.91 in 10.0 mi West 12.7 mph 17.3 mph N/A   Clear
10:55 AM 49.5 °F - 34.9 °F 57% 29.92 in 10.0 mi West 17.3 mph 23.0 mph N/A   Clear
11:15 AM 49.8 °F - 35.4 °F 58% 29.92 in 10.0 mi West 18.4 mph 24.2 mph N/A   Scattered Clouds
11:35 AM 49.5 °F - 35.6 °F 59% 29.93 in 10.0 mi West 13.8 mph 21.9 mph N/A   Mostly Cloudy
11:55 AM 49.8 °F - 35.8 °F 59% 29.93 in 10.0 mi West 9.2 mph 16.1 mph N/A   Overcast
12:15 PM 49.5 °F - 35.4 °F 58% 29.93 in 10.0 mi West 10.4 mph 20.7 mph N/A   Overcast
12:35 PM 48.7 °F - 35.8 °F 61% 29.93 in 10.0 mi WSW 8.1 mph - N/A   Overcast
12:55 PM 49.5 °F - 35.4 °F 58% 29.93 in 10.0 mi West 6.9 mph 17.3 mph N/A   Overcast
1:15 PM 49.3 °F - 34.7 °F 57% 29.92 in 10.0 mi West 12.7 mph 20.7 mph N/A   Overcast
1:35 PM 49.3 °F - 35.6 °F 59% 29.92 in 10.0 mi West 6.9 mph 16.1 mph N/A   Overcast
1:55 PM 49.6 °F - 35.8 °F 59% 29.92 in 10.0 mi West 13.8 mph 25.3 mph N/A   Overcast
2:15 PM 50.4 °F - 35.6 °F 57% 29.91 in 10.0 mi WNW 10.4 mph - N/A   Overcast
2:35 PM 51.1 °F - 33.8 °F 52% 29.90 in 10.0 mi WNW 17.3 mph 33.4 mph N/A   Overcast
2:55 PM 50.9 °F - 33.1 °F 51% 29.90 in 10.0 mi WNW 19.6 mph 32.2 mph N/A   Overcast
3:15 PM 50.9 °F - 33.4 °F 51% 29.89 in 10.0 mi West 8.1 mph 31.1 mph N/A   Overcast
3:35 PM 49.8 °F - 34.2 °F 55% 29.90 in 10.0 mi West 12.7 mph 33.4 mph N/A   Overcast
3:55 PM 51.1 °F - 33.3 °F 51% 29.89 in 10.0 mi WNW 12.7 mph 31.1 mph N/A   Mostly Cloudy
4:15 PM 51.1 °F - 32.4 °F 49% 29.89 in 10.0 mi West 26.5 mph 38.0 mph N/A   Mostly Cloudy
4:35 PM 51.3 °F - 32.0 °F 48% 29.89 in 10.0 mi WNW 16.1 mph 28.8 mph N/A   Mostly Cloudy
4:55 PM 50.5 °F - 32.0 °F 49% 29.89 in 10.0 mi NW 17.3 mph 34.5 mph N/A   Overcast
5:15 PM 50.5 °F - 32.0 °F 49% 29.89 in 10.0 mi WNW 18.4 mph 31.1 mph N/A   Overcast
5:35 PM 50.0 °F - 30.9 °F 48% 29.89 in 10.0 mi WNW 17.3 mph 28.8 mph N/A   Overcast
5:55 PM 50.0 °F - 29.8 °F 46% 29.88 in 10.0 mi WNW 27.6 mph 42.6 mph N/A   Scattered Clouds
6:15 PM 49.6 °F - 28.2 °F 44% 29.89 in 10.0 mi West 26.5 mph 43.7 mph N/A   Scattered Clouds
6:35 PM 49.5 °F - 27.5 °F 43% 29.89 in 10.0 mi West 17.3 mph 32.2 mph N/A   Scattered Clouds
6:55 PM 49.1 °F - 28.0 °F 44% 29.90 in 10.0 mi West 19.6 mph 32.2 mph N/A   Scattered Clouds
7:15 PM 48.7 °F - 27.7 °F 44% 29.90 in 10.0 mi West 20.7 mph 32.2 mph N/A   Scattered Clouds
7:35 PM 48.2 °F - 28.8 °F 47% 29.91 in 10.0 mi WNW 9.2 mph 20.7 mph N/A   Scattered Clouds
7:55 PM 48.2 °F - 28.4 °F 46% 29.91 in 10.0 mi West 13.8 mph 25.3 mph N/A   Overcast
8:15 PM 47.8 °F - 27.0 °F 44% 29.91 in 10.0 mi WNW 16.1 mph 27.6 mph N/A   Overcast
8:35 PM 47.3 °F - 25.7 °F 43% 29.91 in 10.0 mi West 15.0 mph 29.9 mph N/A   Scattered Clouds
8:55 PM 46.8 °F - 25.7 °F 44% 29.92 in 10.0 mi West 15.0 mph 28.8 mph N/A   Scattered Clouds
9:15 PM 46.4 °F 41.1 °F 25.9 °F 45% 29.92 in 10.0 mi WNW 11.5 mph 25.3 mph N/A   Scattered Clouds
9:35 PM 46.4 °F 40.1 °F 25.7 °F 44% 29.93 in 10.0 mi West 15.0 mph 23.0 mph N/A   Scattered Clouds
9:55 PM 45.7 °F 38.0 °F 25.7 °F 46% 29.93 in 10.0 mi West 19.6 mph 26.5 mph N/A   Mostly Cloudy
10:15 PM 45.5 °F 38.9 °F 25.3 °F 45% 29.94 in 10.0 mi NW 15.0 mph 29.9 mph N/A   Mostly Cloudy
10:35 PM 42.8 °F 37.5 °F 27.3 °F 54% 29.95 in 10.0 mi NNW 9.2 mph 20.7 mph N/A   Scattered Clouds
10:55 PM 40.3 °F 32.2 °F 28.0 °F 62% 29.97 in 10.0 mi NNW 15.0 mph 23.0 mph N/A   Scattered Clouds
11:15 PM 39.2 °F 32.5 °F 28.2 °F 65% 29.97 in 10.0 mi NNW 10.4 mph 16.1 mph N/A   Scattered Clouds
11:35 PM 38.3 °F 31.9 °F 27.5 °F 65% 29.97 in 10.0 mi NNW 9.2 mph 17.3 mph N/A   Clear
11:55 PM 37.6 °F 32.3 °F 27.5 °F 67% 29.97 in 10.0 mi NNW 6.9 mph - N/A   Clear